Find Starlink 4683

NORAD ID: 53712 Int'l Des: 2022-107 Owner: SPXS Country: US Constellation: starlink operational
LEOCIRCULAR

实时位置

正在加载3D地球...

关于 Starlink 4683

正在加载描述...

即将过境

Passes for default location (London). Set your location on the main map for personalized predictions.

高度历史

Loading altitude history...

两行轨道根数

1 53712U 22107N 26126.00770301 -.00000971 00000-0 -42876-4 0 9995
2 53712 53.2197 351.3573 0001985 90.1737 269.9483 15.08842932203158
Epoch: May 6, 2026 • Age: 12 hours

当前状态

高度 541.2 km
速度 7.60 km/s
星下点 34.35°N, 95.61°E
发射日期 Sep 5, 2022
运行时间 3.6 years
类型 internet

技术详情

分类 Payload
质量 305.00 kg
干质量 290.00 kg
总质量 305.00 kg
长度 0.20 m
直径 2.80 m
跨度 9.00 m
形状 Box + pan
制造商 SPXS
平台类型 Starlink
阶段状态 In Orbit
所有者/国家 SPXS/US

Most Searched